This demonstration page uses our WeatherBlox Daily Observations layout. Learn more.

Left ArrowRight Arrow

39.08367, -84.50855

Hourly Observations for December 14, 2017

Temp ( °F °C ) Dew Point ( °F °C ) Humidity (%) Winds ( mph kmh ) Pressure ( in mb ) Visibility ( mi km ) Precip ( " mm )
12:53 am 00:53 Cloudy 40 4.4 27 -2.8 60 60 W 24 39 29.65 1004 10 16 N/A
1:53 am 01:53 Cloudy 37 2.8 25 -3.9 62 62 WNW 18 30 29.71 1006 10 16 N/A
2:29 am 02:29 Cloudy 35 1.7 25 -3.9 67 67 WNW 14 22 29.77 1008 10 16 N/A
2:50 am 02:50 Cloudy 36 2 25 -4 65 65 NW 10 17 29.80 1009 10 16 N/A
2:53 am 02:53 Cloudy 35 1.7 23 -5 61 61 NW 14 22 29.77 1008 10 16 N/A
3:53 am 03:53 Cloudy 33 0.6 21 -6.1 61 61 NW 15 24 29.81 1010 10 16 N/A
4:53 am 04:53 Cloudy 32 undefined 21 -6.1 64 64 WNW 10 17 29.84 1011 10 16 N/A
5:01 am 05:01 Cloudy 32 undefined 21 -6.1 64 64 NW 15 24 29.85 1011 10 16 N/A
5:53 am 05:53 Cloudy 32 undefined 21 -6.1 64 64 NW 14 22 29.88 1012 10 16 N/A
6:53 am 06:53 Mostly Clear 28 -2.2 18 -7.8 66 66 N 10 17 29.95 1014 10 16 N/A
7:50 am 07:50 Mostly Cloudy 27 -3 18 -8 69 69 N 7 11 30.00 1016 10 16 N/A
7:53 am 07:53 Mostly Cloudy 27 -2.8 18 -7.8 69 69 N 10 17 29.98 1015 10 16 N/A
8:53 am 08:53 Mostly Cloudy 26 -3.3 17 -8.3 69 69 N 12 19 30.01 1016 9 14 N/A
9:53 am 09:53 Cloudy 27 -2.8 18 -7.8 69 69 N 8 13 30.04 1017 9 14 N/A
10:53 am 10:53 Cloudy 27 -2.8 17 -8.3 66 66 NE 7 11 30.07 1018 10 16 N/A
11:53 am 11:53 Cloudy 27 -2.8 17 -8.3 66 66 N 8 13 30.08 1019 10 16 N/A
12:53 pm 12:53 Cloudy 28 -2.2 17 -8.3 63 63 N 8 13 30.08 1019 10 16 N/A
1:53 pm 13:53 Cloudy 29 -1.7 17 -8.3 61 61 N 8 13 30.08 1019 10 16 N/A
2:53 pm 14:53 Mostly Cloudy 29 -1.7 17 -8.3 61 61 NNW 7 11 30.08 1019 10 16 N/A
3:20 pm 15:20 Mostly Sunny 29 -1.7 17 -8.3 61 61 VRB 5 7 30.09 1019 10 16 N/A
3:53 pm 15:53 Partly Cloudy 29 -1.7 17 -8.3 61 61 VRB 5 7 30.08 1019 10 16 N/A
4:53 pm 16:53 Sunny 27 -2.8 16 -8.9 63 63 N 5 7 30.10 1019 10 16 N/A
5:53 pm 17:53 Clear 26 -3.3 17 -8.3 69 69 N N/A 30.12 1020 10 16 N/A
6:53 pm 18:53 Clear 24 -4.4 17 -8.3 75 75 NE 6 9 30.13 1020 10 16 N/A
7:53 pm 19:53 Clear 24 -4.4 17 -8.3 75 75 ENE 5 7 30.13 1020 10 16 N/A
8:53 pm 20:53 Clear 25 -3.9 17 -8.3 72 72 ENE 5 7 30.13 1020 10 16 N/A
9:53 pm 21:53 Clear 24 -4.4 17 -8.3 75 75 NE 3 6 30.14 1021 10 16 N/A
10:53 pm 22:53 Clear 24 -4.4 17 -8.3 75 75 N N/A 30.13 1020 10 16 N/A
11:53 pm 23:53 Clear 24 -4.4 17 -8.3 75 75 N N/A 30.12 1020 10 16 N/A

Powered by AerisWeather